Weather in Dneprovka

Russia / Republic of Crimea     45°42′59″N   34°21′53″E
temp.,
°C
wind,
m/s
gust,
m/s
humid.,
%
clouds,
%
prec.,
mm/h
press.,
hPa
HPBL,
m
4 march, thu
thu400:00+3w23700 0.0 102826
03:00+2w22700 0.0 102722
06:00+1sw33770 0.0 102642
09:00+4sw47740 0.0 1025244
12:00+9sw68530 0.0 1023992
15:00+10sw89470 0.0 10201094
18:00+7sw7116018 0.0 1019758
21:00+5sw7147734 0.0 1018535
5 march, fri
fri500:00+5sw816780 0.0 1017509
03:00+5sw816840 0.0 1016522
06:00+5sw7148547 0.0 1015433
09:00+7sw7137674 0.0 1015460
12:00+12sw812600 0.0 1014770
15:00+13sw912540 0.0 1012963
18:00+10sw712690 0.0 1012745
21:00+8sw7138837 0.0 1013426
6 march, sat
sat600:00+7sw61291100 0.0 1013353
03:00+7sw61291100 0.0 1013323
06:00+6wsw49932 0.0 1013219
09:00+6nnw698435 0.0 1015575
12:00+4nnw7969100 0.0 1018844
15:00+5nnw7946100 0.0 10201271
18:00+4nnw7846100 0.0 10231638
21:00+1n5105067 0.0 1026458
7 march, sun
sun700:00−1nw35550 0.0 1028129
03:00−1w33540 0.0 102877
06:00−2wnw23550 0.0 102827
09:00+1wsw23480 0.0 1029294
12:00+5wnw57350 0.0 10281753
15:00+5w78390 0.0 10261721
18:00+3w68460 0.0 10241282
21:00+1sw49600 0.0 1023218
8 march, mon
mon800:000sw410617 0.0 1022258
03:000sw5116728 0.0 1021252
06:000sw4107413 0.0 1019226
09:00+4sw7106226 0.0 1018810
12:00+6sw8105765 0.1 10181399
15:00+7sw8105682 0.1 10171411
18:00+6sw7962100 0.1 10151196
21:00+3ssw5117198 0.1 1016414